13P/Olbers (2024)

Japanese version
Home page
Updated on May 26, 2024

---------------------------------------------------------------------

* Profile

Recovery Date August 13, 2023
Magnitude 21.6 mag
Recoverer A. Hale (Las Cumbres Observatory)

* Pictures

* Orbital Elements

Epoch 2024 Mar. 31.0 TT = JDT 2460400.5
T 2024 June 30.04546 TT                                 Rudenko
q   1.1754580            (2000.0)            P               Q
n   0.01421000     Peri.   64.41653     -0.60854881     -0.37163172
a  16.8813328      Node    85.84764     +0.18556404     -0.92570076
e   0.9303694      Incl.   44.66476     +0.77151431     -0.07048382
P  69.4
>From 1324 observations 2023 Oct. 8-2024 May 11, mean residual 0".4.
     Nongravitational parameters A1 = +0.07, A2 = -1.0589.

* Finding Charts

* Magnitudes Graph

        m1 = 4.0 + 5 log d + 24.0 log r(t + 15)  [  ,-15]  (             - 2024 June 15)
        m1 = 4.6 + 5 log d + 15.0 log r(t + 15)  [-15,  ]  (2024 June 15 -             )

---------------------------------------------------------------------

The orbital elements are published on M.P.E.C. 2024-J304.
The charts are made with StellaNavigator Ver.10 (AstroArts).
The magnitudes graphs are made with Comet for Windows.

---------------------------------------------------------------------

Copyright(C) Seiichi Yoshida (comet@aerith.net). All rights reserved.